Location: Holyhead Bay
(53.3667°N, 4.6667°W)
Time: 19:09:13
(UTC+00:00)

Cosmos 2208 Rocket - Pass Details

Date: 24 November 2020
Orbit: 754 x 806 km, 74.0° (Epoch: 16 January)

Event Time Altitude Azimuth Distance (km) Brightness Sun altitude
Rises 17:10:02 0° 194° (SSW) 3,228 7.8 -8.6°
Reaches altitude 10° 17:12:24 10° 192° (SSW) 2,313 7.0 -9.0°
Maximum altitude 17:17:36 67° 111° (ESE) 851 4.1 -9.7°
Drops below altitude 10° 17:22:56 10° 30° (NNE) 2,365 6.1 -10.4°
Enters shadow 17:23:55 - 29° (NNE) 2,744 6.4 -10.6°
